Back to dashboard

Sao Paulo Weather News & Live Monitor

Live monitor data for Sao Paulo with Wunderground, NOAA, and AviationWeather sources, plus recent weather news headlines tied to this city.

Weather snapshot (America/New_York): 2026-05-08 23:06:58
News snapshot (America/New_York): 2026-05-08 22:38:49
Timezone: America/Sao_Paulo
WU High Actual
22.8°C
WU High Today
22.8°C
WU High Forecast
28.9°C
NOAA Latest Temp
18.9°C
Aviation Latest Temp
23°C

NOAA24

Date/Time (L) Temp (C) Dew Point (C) Relative Humidity (%) Wind Direction Wind Speed (mph) Visibility (miles) Weather
May 1, 6:00 am 18.9°C 17.2°C 88 SE 2 6.21
May 1, 5:00 am 18.9°C 16.1°C 83 SE 5 6.21
May 1, 4:00 am 18.9°C 17.2°C 88 SE 3 6.21
May 1, 3:00 am 18.9°C 17.2°C 88 SE 3 6.21
May 1, 2:00 am 18.9°C 17.2°C 88 ESE 3 6.21
May 1, 1:00 am 18.9°C 17.8°C 94 E 3 6.21
May 1, 12:00 am 18.9°C 17.2°C 88 E 6 6.21
Apr 30, 11:10 pm 20°C 17.2°C 83 E 5 6.21
Apr 30, 11:00 pm 20°C 17.2°C 83 SE 3 6.21
Apr 30, 10:00 pm 20°C 17.2°C 83 SE 3 6.21
Apr 30, 9:00 pm 20°C 17.2°C 83 SE 3 6.21
Apr 30, 8:00 pm 18.9°C 17.8°C 94 SE 6 6.21
Apr 30, 7:00 pm 18.9°C 17.8°C 94 SSE 8 4.35
Apr 30, 6:00 pm 20°C 17.8°C 88 S 9 4.35
Apr 30, 5:00 pm 20°C 17.8°C 88 SSE 10 4.35
Apr 30, 4:00 pm 22.2°C 18.9°C 83 SSE 9 4.97
Apr 30, 3:00 pm 23.9°C 18.9°C 74 SE 7 5.59
Apr 30, 2:00 pm 25°C 20°C 74 SSE 12 6.21
Apr 30, 1:00 pm 27.8°C 18.9°C 58 SE 2 6.21
Apr 30, 12:00 pm 26.1°C 18.9°C 65 N 3 6.21
Apr 30, 11:00 am 23.9°C 17.8°C 69 SSE 2 6.21
Apr 30, 10:00 am 22.2°C 17.2°C 73 E 2 6.21
Apr 30, 9:00 am 20°C 17.2°C 83 ENE 5 6.21
Apr 30, 8:00 am 18.9°C 17.2°C 88 ENE 6 6.21
Apr 30, 7:00 am 17.8°C 17.2°C 94 ESE 5 6.21
Apr 30, 6:00 am 17.8°C 17.2°C 94 ENE 14 6.21
Apr 30, 5:00 am 17.8°C 17.2°C 94 NE 13 6.21
Apr 30, 4:40 am 17.8°C 17.2°C 94 NE 13 6.21 Lt rain
Apr 30, 4:00 am 17.8°C 17.2°C 94 NNE 3 6.21 Lt rain
Apr 30, 3:40 am 17.2°C 17.2°C 100 W 3 4.97 Hvy rain
Apr 30, 3:00 am 17.2°C 16.1°C 94 S 3 6.21
Apr 30, 2:00 am 17.2°C 16.1°C 94 E 6 6.21 Lt rain
Apr 30, 1:12 am 17.8°C 17.2°C 94 NE 6 4.97 Hvy rain
Apr 30, 1:00 am 17.8°C 17.2°C 94 E 7 6.21 Lt rain
Apr 30, 12:35 am 17.8°C 17.2°C 94 E 5 6.21 Rain
Apr 30, 12:10 am 17.8°C 17.2°C 94 ENE 8 6.21 Hvy rain
Apr 30, 12:00 am 17.8°C 17.2°C 94 ENE 7 6.21 Lt rain
Apr 29, 11:00 pm 17.8°C 16.1°C 88 ESE 6 6.21
Apr 29, 10:00 pm 17.8°C 16.1°C 88 SSE 10 6.21
Apr 29, 9:00 pm 17.8°C 16.1°C 88 E 10 6.21
Apr 29, 8:00 pm 18.9°C 17.2°C 88 E 6 6.21
Apr 29, 7:00 pm 18.9°C 17.2°C 88 SSE 5 6.21
Apr 29, 6:00 pm 18.9°C 17.2°C 88 S 7 6.21
Apr 29, 5:00 pm 20°C 17.2°C 83 S 10 6.21
Apr 29, 4:00 pm 22.2°C 18.9°C 83 S 10 6.21
Apr 29, 3:30 pm 22.2°C 18.9°C 83 S 13 4.35
Apr 29, 3:00 pm 27.8°C 20°C 62 WSW 8 6.21
Apr 29, 2:00 pm 28.9°C 20°C 58 WNW 6 6.21

AviationWeather

Time Temp (C) Dew (C) RH Wind Weather Clouds Vis
2026-05-09 03:00:00Z 23°C 17°C 20 6+
2026-05-09 02:00:00Z 23°C 17°C 10 6+
2026-05-09 01:00:00Z 20°C 18°C 80 FEW4000 6+
2026-05-09 00:00:00Z 26°C 16°C 340 -RA FEW1500 BKN5000 BKN6600 5.59
2026-05-08 23:00:00Z 24°C 17°C 10 6+
2026-05-08 22:00:00Z 25°C 17°C 50 6+
2026-05-08 21:00:00Z 26°C 17°C 20 6+
2026-05-08 20:00:00Z 28°C 15°C 350 6+
2026-05-08 19:00:00Z 28°C 15°C 320 6+
2026-05-08 18:00:00Z 29°C 17°C 330 BKN4900 6+
2026-05-08 17:00:00Z 28°C 17°C 350 BKN4900 6+
2026-05-08 16:00:00Z 28°C 17°C 350 SCT4000 6+
2026-05-08 15:00:00Z 27°C 17°C 330 6+
2026-05-08 14:00:00Z 26°C 16°C 340 6+
2026-05-08 13:00:00Z 26°C 16°C 10 6+
2026-05-08 12:00:00Z 25°C 16°C 10 6+
2026-05-08 11:00:00Z 24°C 16°C 20 6+
2026-05-08 10:00:00Z 23°C 16°C 30 6+
2026-05-08 09:00:00Z 23°C 16°C 40 6+
2026-05-08 08:00:00Z 23°C 16°C 30 6+
2026-05-08 07:00:00Z 23°C 16°C 40 6+
2026-05-08 06:00:00Z 22°C 15°C 50 6+
2026-05-08 05:00:00Z 22°C 15°C 40 6+
2026-05-08 04:00:00Z 23°C 15°C 40 6+

Latest Sao Paulo Weather News